Location: Carrières
(48.9495°N, 2.0407°E)
Time: 21:15:44
(UTC+00:00)

Transit 2A Rocket - Pass Details

Date: 26 April 2024
Orbit: 585 x 908 km, 66.7° (Epoch: 18 May)

Event Time Altitude Azimuth Distance (km) Brightness Sun altitude
Rises 19:13:36 0° 319° (NW) 3,327 9.7 -2.7°
Reaches altitude 10° 19:16:04 10° 313° (NW) 2,439 9.2 -3.1°
Maximum altitude 19:21:21 42° 244° (WSW) 1,227 6.5 -3.9°
Drops below altitude 10° 19:26:56 10° 176° (S) 2,564 7.4 -4.7°
Sets 19:29:35 0° 170° (S) 3,516 8.0 -5.1°
